TimeCST,TemperatureF,Dew PointF,Humidity,Sea Level PressureIn,VisibilityMPH,Wind Direction,Wind SpeedMPH,Gust SpeedMPH,PrecipitationIn,Events,Conditions,WindDirDegrees,DateUTC
12:15 AM,30.2,24.8,80,30.15,10.0,Calm,Calm,-,N/A,,Partly Cloudy,0,2013-01-17 06:15:00
12:35 AM,28.4,21.2,74,30.14,10.0,Calm,Calm,-,N/A,,Clear,0,2013-01-17 06:35:00
12:55 AM,28.4,23.0,80,30.16,10.0,SSW,4.6,-,N/A,,Clear,210,2013-01-17 06:55:00
1:15 AM,28.4,24.8,86,30.13,10.0,Calm,Calm,-,N/A,,Clear,0,2013-01-17 07:15:00
1:35 AM,26.6,21.2,80,30.16,10.0,Calm,Calm,-,N/A,,Clear,0,2013-01-17 07:35:00
2:15 AM,26.6,21.2,80,30.16,10.0,Calm,Calm,-,N/A,,Clear,0,2013-01-17 08:15:00
2:35 AM,26.6,21.2,80,30.16,10.0,Calm,Calm,-,N/A,,Mostly Cloudy,0,2013-01-17 08:35:00
2:55 AM,28.4,24.8,86,30.17,10.0,Calm,Calm,-,N/A,,Overcast,0,2013-01-17 08:55:00
3:36 AM,28.4,24.8,86,30.16,10.0,Calm,Calm,-,N/A,,Mostly Cloudy,0,2013-01-17 09:36:00
3:55 AM,28.4,24.8,86,30.18,10.0,Calm,Calm,-,N/A,,Overcast,0,2013-01-17 09:55:00
4:15 AM,30.2,26.6,86,30.17,10.0,Calm,Calm,-,N/A,,Overcast,0,2013-01-17 10:15:00
4:35 AM,30.2,26.6,86,30.17,10.0,Calm,Calm,-,N/A,,Overcast,0,2013-01-17 10:35:00
4:55 AM,33.8,26.6,75,30.18,10.0,Calm,Calm,-,N/A,,Overcast,0,2013-01-17 10:55:00
5:15 AM,35.6,24.8,65,30.18,10.0,Calm,Calm,-,N/A,,Overcast,0,2013-01-17 11:15:00
5:35 AM,35.6,24.8,65,30.19,10.0,NNW,3.5,-,N/A,,Overcast,340,2013-01-17 11:35:00
5:55 AM,35.6,24.8,65,30.19,10.0,Calm,Calm,-,N/A,,Overcast,0,2013-01-17 11:55:00
6:15 AM,35.6,24.8,65,30.19,10.0,North,4.6,-,N/A,,Overcast,350,2013-01-17 12:15:00
6:35 AM,35.6,24.8,65,30.19,10.0,North,4.6,-,N/A,,Overcast,360,2013-01-17 12:35:00
7:15 AM,35.6,24.8,65,30.21,10.0,North,3.5,-,N/A,,Overcast,350,2013-01-17 13:15:00
7:35 AM,35.6,24.8,65,30.23,10.0,North,6.9,-,N/A,,Mostly Cloudy,10,2013-01-17 13:35:00
7:55 AM,35.6,26.6,70,30.24,10.0,North,4.6,-,N/A,,Partly Cloudy,10,2013-01-17 13:55:00
8:15 AM,35.6,26.6,70,30.25,10.0,North,8.1,-,N/A,,Clear,10,2013-01-17 14:15:00
8:35 AM,35.6,26.6,70,30.26,10.0,NNE,6.9,-,N/A,,Clear,20,2013-01-17 14:35:00
8:55 AM,37.4,28.4,70,30.27,10.0,North,10.4,-,N/A,,Scattered Clouds,10,2013-01-17 14:55:00
9:15 AM,37.4,28.4,70,30.28,10.0,North,9.2,-,0.01,,Mostly Cloudy,10,2013-01-17 15:15:00
9:36 AM,37.4,30.2,75,30.29,10.0,North,10.4,-,0.01,,Partly Cloudy,10,2013-01-17 15:36:00
9:55 AM,39.2,30.2,70,30.30,10.0,North,6.9,-,0.01,,Clear,360,2013-01-17 15:55:00
10:15 AM,39.2,30.2,70,30.30,10.0,NNE,10.4,-,0.01,,Partly Cloudy,20,2013-01-17 16:15:00
10:35 AM,39.2,30.2,70,30.30,10.0,North,8.1,-,0.01,,Mostly Cloudy,360,2013-01-17 16:35:00
10:55 AM,39.2,30.2,70,30.30,10.0,North,5.8,-,0.01,,Overcast,360,2013-01-17 16:55:00
11:15 AM,39.2,30.2,70,30.30,10.0,North,8.1,-,N/A,,Overcast,10,2013-01-17 17:15:00
11:35 AM,39.2,32.0,75,30.29,10.0,North,8.1,-,N/A,,Mostly Cloudy,350,2013-01-17 17:35:00
12:15 PM,39.2,30.2,70,30.29,10.0,NNE,10.4,16.1,N/A,,Partly Cloudy,20,2013-01-17 18:15:00
12:35 PM,39.2,30.2,70,30.29,10.0,North,10.4,16.1,N/A,,Mostly Cloudy,360,2013-01-17 18:35:00
12:55 PM,39.2,30.2,70,30.29,10.0,North,10.4,19.6,N/A,,Overcast,10,2013-01-17 18:55:00
1:15 PM,39.2,30.2,70,30.29,10.0,North,8.1,16.1,N/A,,Mostly Cloudy,10,2013-01-17 19:15:00
1:35 PM,41.0,28.4,61,30.29,10.0,NNW,6.9,-,N/A,,Mostly Cloudy,330,2013-01-17 19:35:00
1:56 PM,39.2,28.4,65,30.29,10.0,North,4.6,18.4,0.01,,Mostly Cloudy,350,2013-01-17 19:56:00
2:15 PM,39.2,28.4,65,30.30,10.0,NNW,5.8,17.3,0.01,,Scattered Clouds,330,2013-01-17 20:15:00
2:35 PM,37.4,26.6,65,30.31,10.0,NNW,10.4,16.1,0.01,,Partly Cloudy,340,2013-01-17 20:35:00
2:55 PM,39.2,26.6,61,30.31,10.0,NW,4.6,-,0.01,,Clear,310,2013-01-17 20:55:00
3:15 PM,39.2,26.6,61,30.32,10.0,North,5.8,16.1,N/A,,Clear,360,2013-01-17 21:15:00
3:35 PM,39.2,26.6,61,30.33,10.0,North,3.5,-,N/A,,Clear,360,2013-01-17 21:35:00
3:55 PM,39.2,26.6,61,30.34,10.0,NNW,5.8,-,N/A,,Clear,330,2013-01-17 21:55:00
4:15 PM,37.4,26.6,65,30.35,10.0,North,5.8,-,N/A,,Clear,350,2013-01-17 22:15:00
4:35 PM,37.4,24.8,60,30.36,10.0,NNW,6.9,-,N/A,,Clear,330,2013-01-17 22:35:00
4:55 PM,37.4,23.0,56,30.37,10.0,North,3.5,-,N/A,,Clear,350,2013-01-17 22:55:00
5:15 PM,35.6,21.2,56,30.38,10.0,North,3.5,-,N/A,,Clear,350,2013-01-17 23:15:00
5:35 PM,35.6,21.2,56,30.39,10.0,North,3.5,-,N/A,,Clear,350,2013-01-17 23:35:00
5:55 PM,35.6,21.2,56,30.41,10.0,North,3.5,-,N/A,,Clear,360,2013-01-17 23:55:00
6:15 PM,33.8,21.2,60,30.42,10.0,North,4.6,-,N/A,,Clear,350,2013-01-18 00:15:00
6:35 PM,33.8,21.2,60,30.43,10.0,North,3.5,-,N/A,,Clear,350,2013-01-18 00:35:00
6:55 PM,33.8,21.2,60,30.44,10.0,Calm,Calm,-,N/A,,Clear,0,2013-01-18 00:55:00
7:15 PM,32.0,23.0,69,30.45,10.0,Calm,Calm,-,N/A,,Clear,0,2013-01-18 01:15:00
7:35 PM,30.2,21.2,69,30.46,10.0,Calm,Calm,-,N/A,,Clear,0,2013-01-18 01:35:00
7:55 PM,30.2,21.2,69,30.47,10.0,Calm,Calm,-,N/A,,Clear,0,2013-01-18 01:55:00
8:15 PM,30.2,21.2,69,30.47,10.0,Calm,Calm,-,N/A,,Clear,0,2013-01-18 02:15:00
8:55 PM,26.6,21.2,80,30.48,10.0,Calm,Calm,-,N/A,,Clear,0,2013-01-18 02:55:00
9:15 PM,26.6,21.2,80,30.49,10.0,Calm,Calm,-,N/A,,Clear,0,2013-01-18 03:15:00
9:35 PM,26.6,21.2,80,30.49,10.0,Calm,Calm,-,N/A,,Clear,0,2013-01-18 03:35:00
9:55 PM,24.8,19.4,80,30.49,10.0,Calm,Calm,-,N/A,,Clear,0,2013-01-18 03:55:00
10:15 PM,24.8,19.4,80,30.50,10.0,Calm,Calm,-,N/A,,Clear,0,2013-01-18 04:15:00
10:35 PM,23.0,19.4,86,30.51,10.0,Calm,Calm,-,N/A,,Clear,0,2013-01-18 04:35:00
10:55 PM,23.0,19.4,86,30.51,10.0,Calm,Calm,-,N/A,,Clear,0,2013-01-18 04:55:00
11:15 PM,24.8,19.4,80,30.50,10.0,Calm,Calm,-,N/A,,Clear,0,2013-01-18 05:15:00
11:35 PM,24.8,21.2,86,30.51,10.0,Calm,Calm,-,N/A,,Clear,0,2013-01-18 05:35:00
11:55 PM,23.0,19.4,86,30.51,10.0,Calm,Calm,-,N/A,,Clear,0,2013-01-18 05:55:00